Regional Weather Roundup
Issued by NWS Albany, NY

Home | Current Version | Previous Version | Text Only | Print | Product List | Glossary On
Versions: 1 2 3 4 5 6 7 8 9 10 11 12 13 14 15 16 17 18 19 20 21 22 23 24 25 26 27 28
000
ASUS41 KALY 221710
RWRALY

NEW YORK STATE HOURLY WEATHER ROUNDUP
NATIONAL WEATHER SERVICE ALBANY NY
100 PM EDT FRI SEP 22 2017

NOTE: "FAIR" INDICATES FEW OR NO CLOUDS BELOW 12,000 FEET WITH NO
SIGNIFICANT WEATHER AND/OR NO OBSTRUCTIONS TO VISIBILITY.

NYZ032-033-038>043-046>054-057>066-NYZ062>081-082-084-221800-
EAST


CITY           SKY/WX    TMP DP  RH WIND       PRES   REMARKS
ALBANY         CLOUDY    75  52  44 N13G18    30.09F
GLENS FALLS    CLOUDY    72  53  51 NW5       30.10F
POUGHKEEPSIE   SUNNY     75  49  39 N16       30.03F
NEWBURGH       MOSUNNY   77  50  38 NE16G26   30.06S
MONTGOMERY     MOSUNNY   78  51  38 NE13      30.04F
WHITE PLAINS   MOSUNNY   79  54  41 N21G29    29.99F
ISLIP          MOSUNNY   79  58  48 N20G30    29.93F
NEW YORK CITY  MOSUNNY   78  56  46 N20       29.97F
CENTRAL PARK   SUNNY     80  55  42 VRB6      30.01F
$$

NYZ005>009-017-018-044>046-055-056-221800-
CENTRAL


CITY           SKY/WX    TMP DP  RH WIND       PRES   REMARKS
FULTON         SUNNY     78  52  40 CALM      30.12F
SYRACUSE       CLOUDY    75  60  59 NW3       30.11F
ROME           CLOUDY    74  57  55 NW5       30.12F
ELMIRA         CLOUDY    80  56  43 N8        30.12F
BINGHAMTON     MOSUNNY   75  51  43 N12       30.13F
MONTICELLO     SUNNY     77  46  33 E6        30.09F
$$

NYZ026>034-041>043-087-221800-
NORTH


CITY           SKY/WX    TMP DP  RH WIND       PRES   REMARKS
WATERTOWN      SUNNY     77  55  46 NE10      30.12F
FORT DRUM      NOT AVBL
OGDENSBURG     FAIR      78  57  48 N5        30.14F
MASSENA        SUNNY     75  54  47 N10       30.15F
SARANAC LAKE   SUNNY     74  38  27 NE6       30.15F
PLATTSBURGH    SUNNY     73  52  47 NE7       30.13F
$$

NYZ001>004-010>016-019>021-085-221800-
WEST


CITY           SKY/WX    TMP DP  RH WIND       PRES   REMARKS
NIAGARA FALLS  CLOUDY    81  58  45 N8        30.14F
BUFFALO        CLOUDY    78  59  51 N9        30.15F
DUNKIRK        CLOUDY    78  63  59 NW9       30.15F
JAMESTOWN      CLOUDY    75  56  51 E5        30.19F
WELLSVILLE     MOSUNNY   72  56  57 VRB3      30.20F
ROCHESTER      CLOUDY    76  53  44 NE10      30.16S
PENN YAN       CLOUDY    74  58  57 VRB6      30.16S
$$

             KEY
       WCI = WIND CHILL INDEX
       VSB = VISIBILITY
       HX  = HEAT INDEX
$$




USA.gov is the U.S. government's official web portal to all federal, state and local government web resources and services.